Weather in Kechushevo

Russia / Republic of Mordovia     54°44′28″N   46°06′51″E
temp.,
°C
wind,
m/s
gust,
m/s
humid.,
%
clouds,
%
prec.,
mm/h
press.,
hPa
HPBL,
m
19 may, wed
wed1900:00+18ese4146021 0.0 1013228
03:00+18ese6156115 0.0 1013344
06:00+18ese614739 0.0 1013367
09:00+22ese7126579 0.0 1014522
12:00+26ese810515 0.0 10131032
15:00+27ese710534 0.0 10131380
18:00+23ese714600 0.0 1013495
21:00+20ese615610 0.0 1013350
20 may, thu
thu2000:00+19ese717640 0.0 1012454
03:00+18ese616670 0.0 1012493
06:00+18se512740 0.0 1012505
09:00+21se710610 0.0 10111086
12:00+24se9115392 0.1 10111940
15:00+23sse8115860 1.3 10101699
18:00+19s587288 4.4 1010293
21:00+16se228394 6.4 100948
21 may, fri
fri2100:00+14ssw2492100 2.4 1009132
03:00+13s37925 2.8 1010178
06:00+14ssw49885 0.0 1011447
09:00+17sw697237 0.1 10121177
12:00+18sw79679 0.9 10121319
15:00+19wsw81067100 1.5 10131605
18:00+16wsw6107495 0.1 1014965
21:00+15wsw6117995 0.1 1016725
22 may, sat
sat2200:00+12wsw3895100 0.0 1018230
03:00+11w2394100 0.0 101954
06:00+12wnw0185100 0.0 102091
09:00+16s2270100 0.0 1021695
12:00+14s2290100 2.5 1021229
15:00+13se2394100 6.8 1021253
18:00+12e3599100 11.6 1019201
21:00+12ese4699100 27.4 1019187
23 may, sun
sun2300:00+13ene3897100 0.8 1019230
03:00+13e41096100 2.1 1019329
06:00+14ese51393100 1.3 1018434
09:00+16ese71290100 3.0 1017317
12:00+20ese71077100 0.0 1015568
15:00+24se61172100 0.0 1013818
18:00+23ese61277100 0.0 1010317
21:00+21se71673100 0.0 1008325